Regional Weather Roundup
Issued by NWS

Home | Current Version | Previous Version | Graphics & Text | Print | Product List | Glossary On
Versions: 1 2 3 4 5 6 7 8 9 10 11 12 13 14 15 16 17 18 19 20 21 22 23 24 25 26 27 28 29 30 31 32 33 34 35 36 37 38 39 40 41 42 43 44 45 46 47 48 49 50
706
ASUS45 KSLC 270710
RWRUT

UTAH REGIONAL WEATHER ROUNDUP
NATIONAL WEATHER SERVICE SALT LAKE CITY UT
100 AM MDT SAT AUG 27 2016

UTZ001>011-023>025-270800-

NORTHERN UTAH

CITY           SKY/WX    TMP DP  RH WIND       PRES   REMARKS
BRIGHAM CITY     N/A     61  34  37 E3        30.04R
HILL AFB       CLEAR     63  28  26 SE12      30.06R
LOGAN          CLEAR     50  38  63 N9        30.03S
OGDEN          CLEAR     61  30  31 S6        30.03R
PROVO AIRPORT  MOCLDY    63  39  42 SE6       30.07F
SALT LAKE CITY PTCLDY    68  33  27 S7        30.03R
VERNAL         CLOUDY    54  49  83 NW5       30.16S
WENDOVER       CLEAR     72  30  21 NE10      30.03R
HEBER CITY     MOCLDY    50  32  50 CALM      30.13R
WEST JORDAN    PTCLDY    66  40  38 S10       30.06S

$$

UTZ012>022-026-027-270800-

SOUTHERN/CENTRAL UTAH

CITY           SKY/WX    TMP DP  RH WIND       PRES   REMARKS
BLANDING       CLOUDY    57  49  74 N12       30.26F
BRYCE CANYON   CLOUDY    47  44  90 SW5       30.32F
CEDAR CITY     CLOUDY    60  44  55 SE13      30.17F
MILFORD        CLOUDY    64  45  49 SW18      30.12F
MOAB/CYNLANDS  CLOUDY    67  42  40 CALM      30.09F
PRICE          CLOUDY    54  44  69 N7        30.17F
ST GEORGE      CLOUDY    75  45  33 E13       30.05R

$$

REGIONAL REPORTS     COLORADO/ARIZONA

CITY           SKY/WX    TMP DP  RH WIND       PRES   REMARKS
CRAIG, CO      CLOUDY    53  45  74 CALM      30.24R
GRAND JUNCTION PTCLDY    60  47  61 SE9       30.16S
RIFLE          CLOUDY    53  52  96 SW5       30.25F
MONTROSE       PTCLDY    59  45  59 SE9       30.23S
CORTEZ         CLOUDY    57  51  80 E5        30.21R
PAGE, AZ       LGT RAIN  65  53  65 NW6       30.15R
GRAND CANYON   CLOUDY    53  50  89 NE3       30.25R
KINGMAN        NOT AVBL
FLAGSTAFF      CLOUDY    51  50  96 CALM      30.28F

$$

REGIONAL REPORTS    NEVADA/IDAHO/WYOMING

CITY           SKY/WX    TMP DP  RH WIND       PRES   REMARKS
LAS VEGAS, NV  CLOUDY    80  52  37 SW21G35   29.90R
ELY            PTCLDY    53  29  39 S10       30.15S
ELKO           CLEAR     56  23  27 NE6       30.06R
POCATELLO, ID  CLEAR     58  31  35 CALM      30.01S
BURLEY         CLEAR     56  37  49 S10       29.98F
EVANSTON, WY   CLOUDY    55  20  25 SW5       30.20S
ROCK SPRINGS   CLOUDY    54  36  50 SW13      30.16S

$$




USA.gov is the U.S. government's official web portal to all federal, state and local government web resources and services.